Wind_Speed
15 15 16 17 17 16 16 17 18 19 20 20 19 19 19 19 19 19 19 20 20 21 21 22 23 24 24 24 25 26 26 26 27 28 28 27 27 27 28 29 28 29 28 29
15 17 18 18 18 17 17 18 18 20 20 19 19 19 19 19 19 19 20 21 22 22 22 23 24 25 25 26 26 26 27 27 27 27 28 27 26 26 26 26 26 26 27 27
16 18 19 18 18 18 18 18 19 20 21 21 21 21 20 20 20 21 21 23 24 24 25 25 26 27 27 27 27 27 27 27 27 27 27 27 27 26 25 25 25 25 25 27
18 19 19 18 18 18 18 19 20 21 21 20 21 20 19 20 20 21 23 24 25 26 27 28 29 29 28 27 28 28 27 26 26 26 27 27 26 26 27 26 25 25 25 25
19 19 18 18 18 18 18 18 19 19 20 20 21 21 20 20 21 22 23 24 25 26 27 27 27 27 27 27 27 27 26 26 25 25 25 25 25 25 26 26 25 25 25 24
19 19 18 18 18 18 18 19 19 19 19 19 19 21 20 20 21 21 22 23 25 26 26 25 25 25 26 26 25 25 24 24 24 24 23 24 25 25 25 24 24 25 25 24
18 18 18 18 18 18 18 18 18 19 18 18 17 19 19 19 20 20 20 22 23 24 25 24 23 22 22 23 24 24 23 22 23 23 22 23 24 24 24 24 24 24 25 23
17 18 18 17 17 18 17 17 18 19 18 16 16 17 18 18 18 19 19 20 21 22 21 21 20 21 21 21 22 22 22 21 21 21 21 22 22 23 23 23 23 23 23 23
18 18 18 18 17 17 17 16 16 17 17 17 17 16 16 16 17 18 19 20 20 20 19 18 18 18 18 18 19 20 21 20 19 19 19 20 21 21 22 21 21 21 22 23
18 19 19 19 18 17 17 16 15 16 16 16 15 15 15 15 16 17 18 19 20 19 18 18 18 17 17 17 18 18 19 19 18 18 18 18 19 19 20 21 21 20 20 21
18 18 19 19 19 17 17 16 16 16 16 17 15 14 14 15 16 17 18 19 18 18 18 18 18 17 17 17 17 18 18 18 18 18 18 18 18 18 19 20 20 20 20 20
16 18 18 18 18 17 17 17 16 16 16 16 16 14 14 15 16 17 18 18 17 18 18 18 18 18 18 18 18 18 17 18 18 18 18 18 18 18 18 19 20 19 20 20
16 17 16 16 16 17 16 16 16 16 16 16 16 15 15 16 17 17 18 18 18 19 19 19 19 18 18 19 19 19 19 19 19 19 19 18 18 18 18 19 19 19 19 19
16 17 17 16 15 16 15 15 15 15 16 16 15 16 16 18 18 18 19 19 20 21 21 21 20 20 20 20 20 20 20 20 20 19 19 18 18 18 18 19 19 20 19 19
16 16 16 15 15 15 15 15 15 16 15 16 16 17 18 19 19 19 20 20 20 21 22 22 22 22 22 22 21 21 21 20 20 19 19 18 18 19 19 19 19 19 19 19
16 16 16 16 15 14 13 13 14 15 15 16 17 17 18 19 20 21 21 21 21 22 22 23 23 23 23 22 22 22 21 21 20 20 19 19 18 19 19 20 20 20 20 20
17 17 17 15 15 13 12 13 14 14 14 15 16 17 18 20 20 21 21 21 22 23 24 24 23 23 23 22 22 21 21 20 20 19 18 17 17 17 18 18 18 19 20 21
16 16 15 14 14 13 11 12 12 12 13 15 16 18 19 20 20 21 21 22 22 23 23 23 22 22 21 20 20 19 19 18 18 17 16 16 16 16 16 15 16 17 17 17
15 15 15 14 14 12 11 12 12 12 13 15 17 18 19 20 20 21 21 22 22 22 22 21 20 20 19 18 17 16 15 15 15 14 14 13 13 14 14 14 14 15 15 16
13 13 13 13 12 11 11 11 12 13 14 16 17 18 19 20 20 20 20 21 21 21 20 19 19 18 16 15 14 13 12 12 12 12 11 11 12 12 13 13 13 14 14 14
10 11 11 12 11 10 10 10 11 13 14 15 16 18 18 18 19 19 20 20 19 18 17 17 16 15 12 11 10 10 9 10 10 10 9 9 10 10 11 11 12 13 12 12
10 10 11 11 10 10 10 10 11 12 13 15 15 16 16 17 18 18 18 17 17 16 15 14 12 10 9 8 7 7 7 7 7 7 7 7 7 7 8 8 9 10 10 11
10 9 10 9 8 8 9 10 11 12 13 13 14 15 16 16 16 16 16 15 15 14 12 9 8 6 5 5 4 4 4 4 4 4 5 5 5 5 5 5 5 6 7 7
10 9 9 8 8 8 9 9 9 10 11 12 13 14 15 15 15 14 14 13 12 10 7 5 3 3 3 3 3 3 3 4 4 4 3 3 3 2 2 2 2 2 3 3
10 10 9 9 8 8 9 8 8 9 9 10 11 13 14 13 13 12 11 10 9 7 4 2 0 1 1 2 3 3 3 4 4 4 3 3 2 1 0 0 1 1 2 2
10 10 9 9 7 7 7 7 6 7 8 10 11 12 12 12 11 10 9 8 7 5 4 2 2 2 3 4 4 4 4 4 4 3 3 3 2 2 2 2 2 3 3 3
Wind_Direction
228 226 224 223 221 220 218 217 216 222 232 237 240 243 246 251 255 258 261 265 269 274 276 276 279 277 277 278 276 276 276 277 277 277 271 266 260 262 262 262 262 263 262 262
222 221 223 222 221 222 221 218 220 226 237 241 243 248 253 256 261 265 268 271 275 279 280 279 278 278 277 277 275 276 278 280 281 278 274 269 264 264 263 261 261 264 263 261
221 223 224 223 223 225 225 224 225 231 240 247 251 255 262 265 268 273 276 277 279 281 281 280 279 277 277 275 274 276 277 279 281 279 277 274 267 266 265 260 259 262 261 260
221 223 224 225 227 228 227 229 232 237 245 251 258 264 269 274 277 279 279 281 282 282 282 281 279 277 275 275 275 275 276 277 278 279 276 274 271 266 264 261 258 258 258 260
220 222 223 226 230 231 232 238 240 243 249 256 264 271 275 279 282 282 283 282 284 284 283 281 281 279 276 275 275 275 274 275 277 278 274 271 267 264 263 260 257 255 255 254
218 222 223 226 232 235 239 243 246 250 257 261 269 275 279 280 284 287 287 285 286 286 285 282 281 280 277 275 273 274 273 274 277 278 275 269 265 262 261 259 254 252 252 251
218 222 225 230 234 239 245 251 254 259 263 267 271 278 283 285 285 289 291 290 291 288 285 282 280 280 279 274 271 273 273 273 276 277 276 270 264 262 262 259 255 252 250 249
219 221 227 232 235 240 248 257 262 266 266 270 274 282 286 289 288 290 292 294 296 294 288 282 278 279 278 275 273 272 273 274 274 275 274 273 266 262 261 258 257 255 250 250
219 221 228 233 239 246 252 259 264 268 271 274 279 286 288 291 292 290 293 296 297 296 291 287 284 282 280 277 275 272 271 272 273 273 273 272 266 262 259 257 258 256 250 246
223 222 229 235 243 248 254 263 268 273 277 279 284 289 292 288 289 292 295 296 296 296 292 289 288 284 282 281 277 275 272 271 272 271 270 269 266 262 258 256 255 254 249 245
226 227 231 239 245 251 257 264 270 276 282 288 291 295 295 293 293 293 295 298 297 296 293 292 289 285 282 280 277 275 274 271 271 271 269 267 264 262 260 257 256 252 248 247
231 233 235 240 246 254 260 264 272 278 284 290 295 302 297 298 297 296 297 298 296 295 292 291 288 285 281 279 277 276 274 269 269 270 269 265 262 260 257 255 254 252 250 250
235 235 235 241 250 256 262 265 272 278 283 288 294 300 298 297 299 298 296 295 294 293 293 291 289 286 283 280 278 275 272 269 269 270 268 266 262 259 255 252 251 252 252 252
238 239 242 247 253 256 261 268 272 279 286 289 293 294 296 297 298 296 294 292 292 290 289 289 287 285 283 282 278 275 272 270 270 269 267 264 260 258 254 248 247 250 251 250
237 238 240 247 255 257 262 267 273 281 287 289 293 294 296 296 295 295 295 292 291 289 287 285 283 283 282 281 278 275 271 269 267 265 263 261 260 258 254 249 249 249 248 248
235 238 243 250 256 259 265 270 275 281 288 292 295 297 297 296 295 295 295 293 290 287 285 285 285 284 283 281 277 275 270 268 265 262 261 258 257 256 253 250 250 250 250 253
238 241 244 247 254 261 267 272 279 279 286 292 293 295 298 298 297 296 295 293 291 290 288 286 286 286 285 282 278 275 271 268 265 263 261 255 255 254 253 253 251 252 253 255
241 242 245 249 252 260 265 269 278 282 287 291 293 297 299 299 297 296 295 293 292 291 291 289 288 286 284 282 280 276 271 266 262 260 256 253 252 251 252 254 252 251 251 251
237 241 246 251 254 256 260 269 276 284 291 293 296 299 300 299 298 296 294 292 293 292 290 290 288 285 284 282 279 274 268 262 257 253 252 249 249 249 248 250 250 252 252 253
232 238 242 245 249 254 258 268 277 288 293 297 300 302 302 301 299 298 296 296 295 294 292 290 288 285 284 280 275 269 261 253 250 246 244 244 246 246 248 250 251 252 255 257
231 236 239 243 250 256 260 270 281 289 297 301 303 306 304 302 302 302 302 300 300 298 295 292 289 287 282 278 271 260 246 241 241 240 241 244 245 245 247 250 253 252 253 256
230 235 238 244 251 256 261 272 280 289 298 304 308 311 309 306 306 307 306 305 305 303 298 293 288 283 277 269 263 246 235 232 232 232 233 236 237 241 246 251 251 248 251 256
233 237 238 244 251 255 263 272 278 288 299 307 313 316 315 315 314 313 312 312 313 311 302 292 283 275 268 259 234 211 215 214 215 217 219 222 227 235 243 251 256 254 255 256
233 233 234 240 249 258 264 272 280 290 302 312 320 322 323 322 321 320 320 321 323 324 316 303 280 260 225 217 198 190 184 184 184 185 188 197 205 221 247 268 269 260 262 269
229 232 236 239 242 256 263 268 282 296 309 317 324 328 329 329 329 329 329 331 336 343 347 348 10 167 185 172 160 156 157 160 159 158 155 153 153 160 152 36 49 41 18 350
226 229 233 232 242 257 258 265 287 303 316 324 328 332 336 338 340 344 348 352 356 5 21 50 82 119 129 138 147 144 143 144 143 140 138 137 130 105 62 50 51 50 39 29
Height
5786 5789 5790 5791 5793 5795 5797 5799 5802 5803 5803 5805 5807 5809 5810 5811 5811 5812 5812 5812 5813 5813 5813 5812 5812 5812 5812 5812 5811 5811 5811 5812 5811 5811 5810 5810 5810 5811 5812 5813 5814 5815 5817 5818
5784 5785 5787 5788 5791 5793 5795 5797 5799 5800 5801 5803 5804 5805 5806 5807 5807 5807 5807 5807 5807 5807 5807 5807 5807 5806 5806 5806 5805 5805 5805 5805 5805 5805 5804 5803 5804 5804 5805 5806 5807 5808 5810 5811
5780 5783 5784 5786 5788 5791 5793 5796 5797 5798 5798 5799 5801 5802 5803 5802 5802 5802 5802 5802 5802 5802 5802 5801 5800 5800 5799 5799 5799 5799 5799 5799 5799 5798 5797 5797 5798 5798 5798 5799 5800 5801 5802 5803
5777 5779 5782 5784 5787 5789 5791 5793 5794 5795 5796 5796 5798 5798 5798 5798 5798 5797 5797 5797 5797 5796 5795 5794 5794 5792 5792 5792 5792 5792 5792 5792 5792 5791 5791 5791 5791 5792 5792 5793 5794 5794 5795 5795
5775 5777 5780 5783 5785 5787 5789 5790 5791 5792 5793 5793 5793 5793 5795 5794 5793 5793 5792 5791 5791 5790 5789 5788 5786 5786 5785 5785 5785 5785 5786 5786 5785 5785 5784 5784 5784 5785 5785 5786 5787 5788 5789 5790
5773 5775 5778 5781 5782 5784 5786 5787 5788 5789 5789 5790 5790 5790 5790 5790 5789 5788 5787 5786 5785 5783 5782 5781 5780 5779 5778 5778 5778 5779 5779 5779 5779 5778 5777 5777 5777 5778 5778 5779 5780 5782 5784 5785
5771 5774 5776 5779 5780 5782 5784 5785 5786 5786 5786 5787 5786 5785 5786 5785 5784 5783 5782 5781 5779 5777 5776 5774 5773 5772 5772 5771 5771 5772 5772 5772 5772 5771 5771 5771 5771 5772 5772 5773 5774 5776 5777 5779
5770 5772 5774 5776 5778 5779 5781 5782 5783 5783 5783 5783 5782 5782 5783 5781 5779 5778 5777 5776 5774 5771 5769 5768 5767 5767 5766 5766 5766 5766 5766 5766 5766 5765 5765 5765 5765 5766 5766 5767 5769 5770 5771 5773
5767 5770 5772 5774 5775 5777 5778 5778 5779 5779 5779 5779 5779 5779 5779 5777 5775 5774 5773 5771 5769 5767 5765 5763 5762 5762 5761 5760 5760 5760 5760 5760 5760 5760 5759 5759 5759 5760 5761 5762 5763 5764 5766 5767
5765 5768 5770 5771 5773 5774 5775 5776 5776 5775 5775 5775 5775 5775 5775 5773 5771 5770 5768 5766 5764 5762 5760 5759 5758 5757 5756 5755 5755 5755 5755 5755 5754 5754 5754 5754 5754 5755 5756 5757 5758 5759 5760 5762
5763 5765 5767 5769 5770 5771 5773 5773 5772 5772 5772 5771 5771 5774 5771 5769 5767 5765 5764 5762 5760 5758 5756 5755 5754 5752 5751 5751 5750 5750 5750 5750 5749 5749 5749 5749 5750 5750 5751 5752 5753 5754 5755 5757
5760 5762 5764 5766 5767 5768 5769 5769 5769 5770 5769 5768 5767 5771 5766 5765 5763 5761 5759 5757 5755 5754 5752 5751 5749 5748 5747 5746 5745 5744 5744 5744 5744 5744 5744 5744 5745 5745 5746 5747 5748 5749 5750 5752
5757 5759 5761 5763 5766 5766 5765 5765 5765 5765 5765 5764 5764 5766 5762 5760 5758 5756 5754 5753 5751 5749 5748 5746 5744 5743 5741 5741 5740 5739 5739 5739 5739 5739 5739 5739 5740 5740 5741 5742 5743 5744 5745 5746
5754 5756 5759 5760 5760 5761 5762 5762 5762 5762 5761 5761 5760 5760 5758 5756 5754 5752 5750 5748 5746 5744 5742 5741 5739 5738 5736 5735 5734 5734 5733 5733 5733 5734 5734 5734 5734 5735 5736 5737 5738 5739 5740 5742
5750 5752 5754 5756 5756 5757 5758 5759 5759 5758 5758 5757 5756 5755 5753 5751 5749 5747 5745 5743 5741 5739 5737 5735 5734 5732 5731 5730 5729 5728 5728 5728 5728 5728 5728 5729 5729 5730 5731 5732 5733 5734 5735 5736
5747 5749 5750 5752 5753 5754 5755 5755 5755 5754 5754 5753 5752 5751 5748 5746 5744 5742 5740 5738 5735 5733 5731 5729 5728 5726 5725 5723 5723 5722 5722 5722 5722 5723 5723 5724 5725 5725 5726 5727 5728 5729 5730 5731
5743 5745 5747 5749 5750 5750 5752 5752 5752 5751 5750 5749 5748 5747 5744 5742 5739 5737 5735 5732 5730 5727 5725 5723 5722 5720 5719 5717 5717 5716 5716 5716 5717 5717 5718 5719 5719 5720 5721 5722 5723 5724 5725 5726
5740 5742 5744 5745 5747 5748 5751 5749 5749 5748 5747 5746 5744 5742 5739 5737 5734 5732 5729 5727 5724 5722 5719 5717 5716 5714 5713 5712 5711 5710 5710 5711 5711 5712 5713 5714 5715 5716 5717 5718 5718 5720 5721 5722
5736 5739 5740 5742 5743 5745 5747 5746 5745 5745 5744 5742 5740 5737 5734 5731 5729 5726 5724 5721 5718 5716 5714 5712 5710 5708 5707 5706 5706 5705 5705 5706 5707 5708 5709 5710 5711 5712 5713 5714 5715 5716 5717 5718
5734 5736 5738 5739 5741 5742 5745 5743 5742 5743 5741 5739 5735 5733 5730 5727 5724 5722 5718 5715 5713 5710 5708 5706 5704 5703 5702 5701 5701 5701 5701 5702 5703 5704 5705 5706 5707 5709 5710 5711 5712 5713 5713 5714
5732 5734 5735 5737 5738 5740 5741 5740 5740 5740 5739 5735 5732 5729 5726 5723 5720 5717 5713 5711 5708 5705 5703 5701 5700 5699 5698 5698 5698 5698 5698 5699 5700 5701 5703 5704 5705 5706 5707 5708 5709 5709 5710 5711
5730 5732 5733 5735 5736 5739 5738 5737 5737 5737 5734 5731 5729 5725 5722 5719 5716 5712 5709 5706 5704 5701 5699 5697 5696 5695 5695 5695 5695 5696 5696 5697 5698 5700 5701 5702 5703 5704 5704 5705 5706 5706 5707 5708
5728 5731 5732 5734 5736 5735 5735 5735 5734 5733 5731 5729 5726 5722 5719 5716 5712 5709 5706 5703 5700 5697 5695 5694 5693 5693 5693 5694 5694 5695 5696 5696 5697 5699 5700 5700 5701 5702 5703 5703 5704 5704 5705 5705
5727 5728 5730 5731 5733 5733 5733 5733 5732 5731 5729 5726 5723 5720 5717 5713 5710 5706 5703 5700 5697 5695 5693 5692 5692 5692 5692 5693 5694 5695 5696 5697 5697 5698 5699 5700 5701 5701 5702 5702 5702 5703 5703 5704
5725 5726 5728 5729 5731 5731 5731 5731 5730 5729 5727 5724 5722 5718 5715 5711 5708 5705 5701 5698 5696 5694 5693 5692 5692 5692 5692 5693 5694 5695 5696 5697 5698 5699 5699 5700 5701 5702 5702 5702 5702 5703 5703 5703
5723 5725 5727 5728 5729 5729 5730 5729 5729 5727 5726 5723 5720 5717 5714 5710 5707 5704 5701 5698 5696 5694 5693 5692 5692 5692 5693 5694 5695 5696 5696 5697 5698 5699 5700 5701 5702 5702 5702 5703 5703 5703 5703 5703